Time,TemperatureF,DewpointF,PressureIn,WindDirection,WindDirectionDegrees,WindSpeedMPH,WindSpeedGustMPH,Humidity,HourlyPrecipIn,Conditions,Clouds,dailyrainin,SoftwareType,DateUTC
2013-01-06 00:00:00,24.1,13.7,30.24,NE,38,3.0,3.0,64,0.00,,,0.00,vanprod-2.5,2013-01-06 05:00:00,
2013-01-06 00:03:00,24.1,13.7,30.24,NE,48,2.0,3.0,64,0.00,,,0.00,vanprod-2.5,2013-01-06 05:03:00,
2013-01-06 00:07:00,24.3,14.2,30.24,ENE,71,3.0,3.0,65,0.00,,,0.00,vanprod-2.5,2013-01-06 05:07:00,
2013-01-06 00:12:00,24.3,14.2,30.25,ENE,68,2.0,3.0,65,0.00,,,0.00,vanprod-2.5,2013-01-06 05:12:00,
2013-01-06 00:17:00,24.2,13.8,30.25,NE,43,3.0,3.0,64,0.00,,,0.00,vanprod-2.5,2013-01-06 05:17:00,
2013-01-06 00:22:00,24.0,14.0,30.24,NNE,33,3.0,6.0,65,0.00,,,0.00,vanprod-2.5,2013-01-06 05:22:00,
2013-01-06 00:27:00,24.2,14.5,30.24,ENE,61,3.0,3.0,66,0.00,,,0.00,vanprod-2.5,2013-01-06 05:27:00,
2013-01-06 00:32:00,24.3,14.2,30.23,ENE,76,2.0,5.0,65,0.00,,,0.00,vanprod-2.5,2013-01-06 05:32:00,
2013-01-06 00:37:00,24.4,14.3,30.23,ENE,61,3.0,8.0,65,0.00,,,0.00,vanprod-2.5,2013-01-06 05:37:00,
2013-01-06 00:42:00,24.7,15.3,30.23,ENE,63,4.0,6.0,67,0.00,,,0.00,vanprod-2.5,2013-01-06 05:42:00,
2013-01-06 00:47:00,24.7,15.3,30.22,NE,36,4.0,5.0,67,0.00,,,0.00,vanprod-2.5,2013-01-06 05:47:00,
2013-01-06 00:52:00,24.5,15.5,30.23,ENE,65,4.0,5.0,68,0.00,,,0.00,vanprod-2.5,2013-01-06 05:52:00,
2013-01-06 00:57:00,24.5,15.5,30.23,NE,39,1.0,2.0,68,0.00,,,0.00,vanprod-2.5,2013-01-06 05:57:00,
2013-01-06 01:02:00,24.3,15.9,30.23,NE,54,2.0,4.0,70,0.00,,,0.00,vanprod-2.5,2013-01-06 06:02:00,
2013-01-06 01:07:00,24.4,16.0,30.23,East,94,3.0,5.0,70,0.00,,,0.00,vanprod-2.5,2013-01-06 06:07:00,
2013-01-06 01:12:00,24.5,16.1,30.23,NE,34,3.0,6.0,70,0.00,,,0.00,vanprod-2.5,2013-01-06 06:12:00,
2013-01-06 01:17:00,24.5,16.5,30.21,NE,40,3.0,3.0,71,0.00,,,0.00,vanprod-2.5,2013-01-06 06:17:00,
2013-01-06 01:22:00,24.4,16.0,30.22,NE,53,3.0,5.0,70,0.00,,,0.00,vanprod-2.5,2013-01-06 06:22:00,
2013-01-06 01:27:00,24.4,16.0,30.23,ENE,70,2.0,4.0,70,0.00,,,0.00,vanprod-2.5,2013-01-06 06:27:00,
2013-01-06 01:32:00,24.6,16.2,30.22,NNE,29,2.0,3.0,70,0.00,,,0.00,vanprod-2.5,2013-01-06 06:32:00,
2013-01-06 01:37:00,24.6,16.2,30.22,ENE,66,3.0,3.0,70,0.00,,,0.00,vanprod-2.5,2013-01-06 06:37:00,
2013-01-06 01:42:00,24.6,16.2,30.22,ENE,78,2.0,4.0,70,0.00,,,0.00,vanprod-2.5,2013-01-06 06:42:00,
2013-01-06 01:47:00,24.8,16.7,30.21,NE,46,5.0,5.0,71,0.00,,,0.00,vanprod-2.5,2013-01-06 06:47:00,
2013-01-06 01:52:00,25.0,16.9,30.22,ENE,58,2.0,3.0,71,0.00,,,0.00,vanprod-2.5,2013-01-06 06:52:00,
2013-01-06 01:57:00,25.0,16.9,30.21,NE,46,3.0,4.0,71,0.00,,,0.00,vanprod-2.5,2013-01-06 06:57:00,
2013-01-06 02:02:00,25.1,17.0,30.22,ENE,59,2.0,4.0,71,0.00,,,0.00,vanprod-2.5,2013-01-06 07:02:00,
2013-01-06 02:07:00,25.2,17.5,30.22,NE,38,3.0,3.0,72,0.00,,,0.00,vanprod-2.5,2013-01-06 07:07:00,
2013-01-06 02:12:00,25.1,17.4,30.22,ENE,70,2.0,3.0,72,0.00,,,0.00,vanprod-2.5,2013-01-06 07:12:00,
2013-01-06 02:17:00,25.3,17.6,30.22,NE,49,3.0,4.0,72,0.00,,,0.00,vanprod-2.5,2013-01-06 07:17:00,
2013-01-06 02:22:00,25.2,17.1,30.21,NE,41,3.0,3.0,71,0.00,,,0.00,vanprod-2.5,2013-01-06 07:22:00,
2013-01-06 02:27:00,25.2,17.5,30.22,NE,34,4.0,4.0,72,0.00,,,0.00,vanprod-2.5,2013-01-06 07:27:00,
2013-01-06 02:32:00,25.1,17.7,30.22,NE,44,2.0,4.0,73,0.00,,,0.00,vanprod-2.5,2013-01-06 07:32:00,
2013-01-06 02:37:00,25.1,17.7,30.23,East,93,1.0,2.0,73,0.00,,,0.00,vanprod-2.5,2013-01-06 07:37:00,
2013-01-06 02:42:00,24.9,17.5,30.22,NE,43,0.0,0.0,73,0.00,,,0.00,vanprod-2.5,2013-01-06 07:42:00,
2013-01-06 02:47:00,24.4,17.0,30.22,NNE,30,0.0,0.0,73,0.00,,,0.00,vanprod-2.5,2013-01-06 07:47:00,
2013-01-06 02:52:00,24.2,16.8,30.21,NNE,25,1.0,2.0,73,0.00,,,0.00,vanprod-2.5,2013-01-06 07:52:00,
2013-01-06 02:57:00,24.0,17.2,30.21,NE,44,1.0,2.0,75,0.00,,,0.00,vanprod-2.5,2013-01-06 07:57:00,
2013-01-06 03:02:00,24.4,17.6,30.20,NE,49,1.0,2.0,75,0.00,,,0.00,vanprod-2.5,2013-01-06 08:02:00,
2013-01-06 03:07:00,24.7,17.6,30.20,NE,37,3.0,5.0,74,0.00,,,0.00,vanprod-2.5,2013-01-06 08:07:00,
2013-01-06 03:12:00,24.7,17.6,30.19,NNE,25,2.0,2.0,74,0.00,,,0.00,vanprod-2.5,2013-01-06 08:12:00,
2013-01-06 03:17:00,24.5,17.4,30.18,NNE,27,1.0,1.0,74,0.00,,,0.00,vanprod-2.5,2013-01-06 08:17:00,
2013-01-06 03:22:00,24.4,17.6,30.18,ENE,66,1.0,1.0,75,0.00,,,0.00,vanprod-2.5,2013-01-06 08:22:00,
2013-01-06 03:27:00,24.5,17.7,30.18,ENE,62,1.0,1.0,75,0.00,,,0.00,vanprod-2.5,2013-01-06 08:27:00,
2013-01-06 03:32:00,24.0,17.5,30.17,NNE,28,1.0,1.0,76,0.00,,,0.00,vanprod-2.5,2013-01-06 08:32:00,
2013-01-06 03:37:00,24.1,17.9,30.18,NE,37,2.0,4.0,77,0.00,,,0.00,vanprod-2.5,2013-01-06 08:37:00,
2013-01-06 03:42:00,24.3,18.1,30.18,NNW,330,0.0,0.0,77,0.00,,,0.00,vanprod-2.5,2013-01-06 08:42:00,
2013-01-06 03:47:00,24.2,18.0,30.17,NNE,21,1.0,3.0,77,0.00,,,0.00,vanprod-2.5,2013-01-06 08:47:00,
2013-01-06 03:52:00,24.5,18.6,30.17,NNE,27,2.0,3.0,78,0.00,,,0.00,vanprod-2.5,2013-01-06 08:52:00,
2013-01-06 03:57:00,24.6,18.7,30.16,North,351,1.0,2.0,78,0.00,,,0.00,vanprod-2.5,2013-01-06 08:57:00,
2013-01-06 04:02:00,24.6,19.0,30.16,NNE,24,1.0,2.0,79,0.00,,,0.00,vanprod-2.5,2013-01-06 09:02:00,
2013-01-06 04:07:00,24.6,19.0,30.16,WNW,283,1.0,1.0,79,0.00,,,0.00,vanprod-2.5,2013-01-06 09:07:00,
2013-01-06 04:12:00,24.5,19.5,30.16,WNW,284,0.0,1.0,81,0.00,,,0.00,vanprod-2.5,2013-01-06 09:12:00,
2013-01-06 04:17:00,24.5,19.5,30.16,North,350,1.0,3.0,81,0.00,,,0.00,vanprod-2.5,2013-01-06 09:17:00,
2013-01-06 04:22:00,24.4,19.4,30.15,North,350,1.0,2.0,81,0.00,,,0.00,vanprod-2.5,2013-01-06 09:22:00,
2013-01-06 04:27:00,24.3,19.3,30.15,NNE,14,1.0,1.0,81,0.00,,,0.00,vanprod-2.5,2013-01-06 09:27:00,
2013-01-06 04:32:00,24.2,19.2,30.15,NNE,20,1.0,1.0,81,0.00,,,0.00,vanprod-2.5,2013-01-06 09:32:00,
2013-01-06 04:37:00,24.0,18.7,30.14,NNE,32,0.0,1.0,80,0.00,,,0.00,vanprod-2.5,2013-01-06 09:37:00,
2013-01-06 04:42:00,24.0,18.7,30.13,NNE,26,2.0,3.0,80,0.00,,,0.00,vanprod-2.5,2013-01-06 09:42:00,
2013-01-06 04:47:00,24.0,19.0,30.13,NNE,20,2.0,3.0,81,0.00,,,0.00,vanprod-2.5,2013-01-06 09:47:00,
2013-01-06 04:52:00,24.0,19.0,30.14,North,4,1.0,1.0,81,0.00,,,0.00,vanprod-2.5,2013-01-06 09:52:00,
2013-01-06 04:57:00,24.0,19.3,30.13,North,7,2.0,3.0,82,0.00,,,0.00,vanprod-2.5,2013-01-06 09:57:00,
2013-01-06 05:03:00,24.0,19.3,30.13,NNW,327,2.0,2.0,82,0.00,,,0.00,vanprod-2.5,2013-01-06 10:03:00,
2013-01-06 05:08:00,24.0,19.3,30.13,NW,316,1.0,2.0,82,0.00,,,0.00,vanprod-2.5,2013-01-06 10:08:00,
2013-01-06 05:13:00,24.0,19.3,30.13,NNE,14,1.0,2.0,82,0.00,,,0.00,vanprod-2.5,2013-01-06 10:13:00,
2013-01-06 05:18:00,24.0,19.3,30.12,North,357,2.0,2.0,82,0.00,,,0.00,vanprod-2.5,2013-01-06 10:18:00,
2013-01-06 05:23:00,24.1,19.4,30.12,NNE,20,1.0,0.0,82,0.00,,,0.00,vanprod-2.5,2013-01-06 10:23:00,
2013-01-06 05:28:00,24.1,19.4,30.12,NNW,342,2.0,4.0,82,0.00,,,0.00,vanprod-2.5,2013-01-06 10:28:00,
2013-01-06 05:33:00,24.0,19.3,30.11,NNE,12,2.0,5.0,82,0.00,,,0.00,vanprod-2.5,2013-01-06 10:33:00,
2013-01-06 05:38:00,23.9,19.2,30.11,North,351,2.0,2.0,82,0.00,,,0.00,vanprod-2.5,2013-01-06 10:38:00,
2013-01-06 05:43:00,23.8,18.8,30.11,NNW,347,0.0,1.0,81,0.00,,,0.00,vanprod-2.5,2013-01-06 10:43:00,
2013-01-06 05:48:00,23.7,18.7,30.11,NNW,341,2.0,2.0,81,0.00,,,0.00,vanprod-2.5,2013-01-06 10:48:00,
2013-01-06 05:53:00,23.6,18.3,30.11,NNE,16,1.0,2.0,80,0.00,,,0.00,vanprod-2.5,2013-01-06 10:53:00,
2013-01-06 05:58:00,23.6,18.6,30.11,North,2,1.0,0.0,81,0.00,,,0.00,vanprod-2.5,2013-01-06 10:58:00,
2013-01-06 06:03:00,23.6,18.3,30.11,NNE,16,2.0,2.0,80,0.00,,,0.00,vanprod-2.5,2013-01-06 11:03:00,
2013-01-06 06:08:00,23.6,18.3,30.11,North,5,2.0,2.0,80,0.00,,,0.00,vanprod-2.5,2013-01-06 11:08:00,
2013-01-06 06:13:00,23.5,18.3,30.11,NNW,330,2.0,2.0,80,0.00,,,0.00,vanprod-2.5,2013-01-06 11:13:00,
2013-01-06 06:18:00,23.4,17.9,30.11,North,6,4.0,4.0,79,0.00,,,0.00,vanprod-2.5,2013-01-06 11:18:00,
2013-01-06 06:23:00,23.2,17.7,30.10,North,7,4.0,5.0,79,0.00,,,0.00,vanprod-2.5,2013-01-06 11:23:00,
2013-01-06 06:28:00,23.0,17.5,30.09,NNE,13,4.0,4.0,79,0.00,,,0.00,vanprod-2.5,2013-01-06 11:28:00,
2013-01-06 06:33:00,23.0,17.5,30.09,North,5,3.0,3.0,79,0.00,,,0.00,vanprod-2.5,2013-01-06 11:33:00,
2013-01-06 06:38:00,22.9,17.4,30.09,NNE,13,3.0,3.0,79,0.00,,,0.00,vanprod-2.5,2013-01-06 11:38:00,
2013-01-06 06:43:00,22.8,17.3,30.09,North,359,2.0,2.0,79,0.00,,,0.00,vanprod-2.5,2013-01-06 11:43:00,
2013-01-06 06:48:00,22.8,17.9,30.10,North,0,2.0,2.0,81,0.00,,,0.00,vanprod-2.5,2013-01-06 11:48:00,
2013-01-06 06:53:00,22.7,18.3,30.10,North,357,3.0,3.0,83,0.00,,,0.00,vanprod-2.5,2013-01-06 11:53:00,
2013-01-06 06:58:00,22.7,18.6,30.10,North,351,5.0,5.0,84,0.00,,,0.00,vanprod-2.5,2013-01-06 11:58:00,
2013-01-06 07:03:00,22.6,18.2,30.10,NNW,340,3.0,5.0,83,0.00,,,0.00,vanprod-2.5,2013-01-06 12:03:00,
2013-01-06 07:08:00,22.4,18.3,30.09,NNW,341,3.0,3.0,84,0.00,,,0.00,vanprod-2.5,2013-01-06 12:08:00,
2013-01-06 07:13:00,22.4,18.3,30.09,NNW,328,2.0,3.0,84,0.00,,,0.00,vanprod-2.5,2013-01-06 12:13:00,
2013-01-06 07:18:00,22.4,18.6,30.09,NNW,340,2.0,2.0,85,0.00,,,0.00,vanprod-2.5,2013-01-06 12:18:00,
2013-01-06 07:23:00,22.5,19.0,30.09,North,352,3.0,3.0,86,0.00,,,0.00,vanprod-2.5,2013-01-06 12:23:00,
2013-01-06 07:28:00,22.5,19.0,30.09,North,2,2.0,2.0,86,0.00,,,0.00,vanprod-2.5,2013-01-06 12:28:00,
2013-01-06 07:33:00,22.4,18.6,30.08,NNE,21,3.0,3.0,85,0.00,,,0.00,vanprod-2.5,2013-01-06 12:33:00,
2013-01-06 07:38:00,22.3,18.5,30.09,North,4,3.0,3.0,85,0.00,,,0.00,vanprod-2.5,2013-01-06 12:38:00,
2013-01-06 07:43:00,22.3,18.8,30.08,North,4,3.0,3.0,86,0.00,,,0.00,vanprod-2.5,2013-01-06 12:43:00,
2013-01-06 07:48:00,22.3,18.8,30.08,NNE,14,1.0,2.0,86,0.00,,,0.00,vanprod-2.5,2013-01-06 12:48:00,
2013-01-06 07:53:00,22.2,18.4,30.07,NNE,14,3.0,3.0,85,0.00,,,0.00,vanprod-2.5,2013-01-06 12:53:00,
2013-01-06 07:58:00,22.2,18.4,30.07,NNE,23,2.0,3.0,85,0.00,,,0.00,vanprod-2.5,2013-01-06 12:58:00,
2013-01-06 08:03:00,22.3,18.8,30.07,North,8,2.0,2.0,86,0.00,,,0.00,vanprod-2.5,2013-01-06 13:03:00,
2013-01-06 08:08:00,22.4,18.9,30.07,North,7,2.0,2.0,86,0.00,,,0.00,vanprod-2.5,2013-01-06 13:08:00,
2013-01-06 08:13:00,22.6,19.1,30.07,NNW,332,3.0,4.0,86,0.00,,,0.00,vanprod-2.5,2013-01-06 13:13:00,
2013-01-06 08:18:00,22.8,19.5,30.07,NW,325,1.0,2.0,87,0.00,,,0.00,vanprod-2.5,2013-01-06 13:18:00,
2013-01-06 08:23:00,22.8,19.5,30.07,North,1,1.0,2.0,87,0.00,,,0.00,vanprod-2.5,2013-01-06 13:23:00,
2013-01-06 08:28:00,22.8,19.5,30.08,NNW,338,3.0,3.0,87,0.00,,,0.00,vanprod-2.5,2013-01-06 13:28:00,
2013-01-06 08:33:00,22.6,19.1,30.07,NNE,24,2.0,2.0,86,0.00,,,0.00,vanprod-2.5,2013-01-06 13:33:00,
2013-01-06 08:38:00,22.5,19.0,30.07,NNE,25,1.0,1.0,86,0.00,,,0.00,vanprod-2.5,2013-01-06 13:38:00,
2013-01-06 08:43:00,22.5,19.2,30.06,North,9,0.0,0.0,87,0.00,,,0.00,vanprod-2.5,2013-01-06 13:43:00,
2013-01-06 08:48:00,22.7,19.4,30.06,NNW,336,1.0,1.0,87,0.00,,,0.00,vanprod-2.5,2013-01-06 13:48:00,
2013-01-06 08:53:00,22.9,19.6,30.06,NW,325,0.0,0.0,87,0.00,,,0.00,vanprod-2.5,2013-01-06 13:53:00,
2013-01-06 08:58:00,23.1,19.8,30.06,North,2,1.0,1.0,87,0.00,,,0.00,vanprod-2.5,2013-01-06 13:58:00,
2013-01-06 09:03:00,23.4,20.1,30.06,NNE,19,1.0,1.0,87,0.00,,,0.00,vanprod-2.5,2013-01-06 14:03:00,
2013-01-06 09:08:00,23.5,20.2,30.06,NNE,17,1.0,1.0,87,0.00,,,0.00,vanprod-2.5,2013-01-06 14:08:00,
2013-01-06 09:13:00,23.6,20.3,30.07,North,358,1.0,1.0,87,0.00,,,0.00,vanprod-2.5,2013-01-06 14:13:00,
2013-01-06 09:18:00,23.7,20.4,30.07,NNE,31,1.0,1.0,87,0.00,,,0.00,vanprod-2.5,2013-01-06 14:18:00,
2013-01-06 09:23:00,23.6,20.3,30.07,NNE,13,1.0,1.0,87,0.00,,,0.00,vanprod-2.5,2013-01-06 14:23:00,
2013-01-06 09:28:00,23.8,20.5,30.06,NNE,24,1.0,0.0,87,0.00,,,0.00,vanprod-2.5,2013-01-06 14:28:00,
2013-01-06 09:33:00,24.0,20.7,30.06,NNW,335,0.0,0.0,87,0.00,,,0.00,vanprod-2.5,2013-01-06 14:33:00,
2013-01-06 09:38:00,24.3,21.0,30.06,North,353,0.0,1.0,87,0.00,,,0.00,vanprod-2.5,2013-01-06 14:38:00,
2013-01-06 09:43:00,24.6,21.3,30.06,NW,322,1.0,0.0,87,0.00,,,0.00,vanprod-2.5,2013-01-06 14:43:00,
2013-01-06 09:48:00,24.6,21.0,30.06,North,351,2.0,2.0,86,0.00,,,0.00,vanprod-2.5,2013-01-06 14:48:00,
2013-01-06 09:53:00,24.6,21.0,30.06,NW,317,1.0,1.0,86,0.00,,,0.00,vanprod-2.5,2013-01-06 14:53:00,
2013-01-06 09:58:00,24.7,21.4,30.06,NNW,347,1.0,1.0,87,0.00,,,0.00,vanprod-2.5,2013-01-06 14:58:00,
2013-01-06 10:03:00,24.8,21.2,30.05,NNW,330,0.0,1.0,86,0.00,,,0.00,vanprod-2.5,2013-01-06 15:03:00,
2013-01-06 10:08:00,24.9,21.3,30.05,North,356,1.0,2.0,86,0.00,,,0.00,vanprod-2.5,2013-01-06 15:08:00,
2013-01-06 10:13:00,25.1,21.5,30.05,NNE,29,1.0,2.0,86,0.00,,,0.00,vanprod-2.5,2013-01-06 15:13:00,
2013-01-06 10:18:00,25.4,21.8,30.04,NNE,33,1.0,2.0,86,0.00,,,0.00,vanprod-2.5,2013-01-06 15:18:00,
2013-01-06 10:23:00,25.8,22.2,30.04,NNE,16,0.0,0.0,86,0.00,,,0.00,vanprod-2.5,2013-01-06 15:23:00,
2013-01-06 10:28:00,27.1,23.5,30.04,NNE,16,0.0,0.0,86,0.00,,,0.00,vanprod-2.5,2013-01-06 15:28:00,
2013-01-06 10:33:00,27.8,23.0,30.03,SSW,198,0.0,0.0,82,0.00,,,0.00,vanprod-2.5,2013-01-06 15:33:00,
2013-01-06 10:38:00,28.0,23.2,30.02,West,273,0.0,1.0,82,0.00,,,0.00,vanprod-2.5,2013-01-06 15:38:00,
2013-01-06 10:43:00,28.2,23.1,30.02,WSW,247,2.0,2.0,81,0.00,,,0.00,vanprod-2.5,2013-01-06 15:43:00,
2013-01-06 10:48:00,28.4,23.3,30.02,West,270,3.0,3.0,81,0.00,,,0.00,vanprod-2.5,2013-01-06 15:48:00,
2013-01-06 10:53:00,28.3,23.5,30.01,WSW,246,3.0,5.0,82,0.00,,,0.00,vanprod-2.5,2013-01-06 15:53:00,
2013-01-06 10:58:00,28.3,23.2,30.01,West,265,5.0,5.0,81,0.00,,,0.00,vanprod-2.5,2013-01-06 15:58:00,
2013-01-06 11:03:00,28.6,23.5,30.00,West,262,3.0,3.0,81,0.00,,,0.00,vanprod-2.5,2013-01-06 16:03:00,
2013-01-06 11:08:00,28.6,23.5,30.00,West,274,4.0,5.0,81,0.00,,,0.00,vanprod-2.5,2013-01-06 16:08:00,
2013-01-06 11:13:00,28.7,23.6,30.00,WSW,257,3.0,3.0,81,0.00,,,0.00,vanprod-2.5,2013-01-06 16:13:00,
2013-01-06 11:18:00,29.2,24.1,29.99,SW,236,5.0,8.0,81,0.00,,,0.00,vanprod-2.5,2013-01-06 16:18:00,
2013-01-06 11:23:00,29.0,23.6,29.99,West,271,5.0,5.0,80,0.00,,,0.00,vanprod-2.5,2013-01-06 16:23:00,
2013-01-06 11:28:00,29.2,23.8,29.98,West,280,5.0,6.0,80,0.00,,,0.00,vanprod-2.5,2013-01-06 16:28:00,
2013-01-06 11:33:00,29.3,23.9,29.98,West,264,5.0,5.0,80,0.00,,,0.00,vanprod-2.5,2013-01-06 16:33:00,
2013-01-06 11:38:00,29.6,24.2,29.97,West,274,3.0,3.0,80,0.00,,,0.00,vanprod-2.5,2013-01-06 16:38:00,
2013-01-06 11:43:00,29.7,24.0,29.97,West,277,5.0,5.0,79,0.00,,,0.00,vanprod-2.5,2013-01-06 16:43:00,
2013-01-06 11:48:00,29.9,24.2,29.97,WSW,253,5.0,6.0,79,0.00,,,0.00,vanprod-2.5,2013-01-06 16:48:00,
2013-01-06 11:53:00,30.3,24.3,29.96,West,273,5.0,10.0,78,0.00,,,0.00,vanprod-2.5,2013-01-06 16:53:00,
2013-01-06 11:58:00,30.5,24.2,29.96,West,264,6.0,7.0,77,0.00,,,0.00,vanprod-2.5,2013-01-06 16:58:00,
2013-01-06 12:03:00,30.8,24.8,29.96,West,275,3.0,3.0,78,0.00,,,0.00,vanprod-2.5,2013-01-06 17:03:00,
2013-01-06 12:08:00,31.4,24.7,29.96,WSW,237,5.0,5.0,76,0.00,,,0.00,vanprod-2.5,2013-01-06 17:08:00,
2013-01-06 12:13:00,32.0,25.0,29.95,WSW,256,3.0,7.0,75,0.00,,,0.00,vanprod-2.5,2013-01-06 17:13:00,
2013-01-06 12:18:00,32.1,25.1,29.95,NW,309,4.0,7.0,75,0.00,,,0.00,vanprod-2.5,2013-01-06 17:18:00,
2013-01-06 12:23:00,32.4,25.4,29.95,West,264,5.0,8.0,75,0.00,,,0.00,vanprod-2.5,2013-01-06 17:23:00,
2013-01-06 12:28:00,32.8,25.1,29.95,WNW,288,4.0,9.0,73,0.00,,,0.00,vanprod-2.5,2013-01-06 17:28:00,
2013-01-06 12:33:00,33.0,25.0,29.95,WNW,294,5.0,7.0,72,0.00,,,0.00,vanprod-2.5,2013-01-06 17:33:00,
2013-01-06 12:38:00,33.5,25.5,29.95,WNW,302,3.0,5.0,72,0.00,,,0.00,vanprod-2.5,2013-01-06 17:38:00,
2013-01-06 12:43:00,33.6,25.2,29.95,NW,317,5.0,6.0,71,0.00,,,0.00,vanprod-2.5,2013-01-06 17:43:00,
2013-01-06 12:48:00,34.1,25.4,29.95,WNW,293,4.0,6.0,70,0.00,,,0.00,vanprod-2.5,2013-01-06 17:48:00,
2013-01-06 12:53:00,34.3,25.2,29.95,WNW,302,4.0,6.0,69,0.00,,,0.00,vanprod-2.5,2013-01-06 17:53:00,
2013-01-06 12:58:00,34.6,25.5,29.95,NW,315,2.0,2.0,69,0.00,,,0.00,vanprod-2.5,2013-01-06 17:58:00,
2013-01-06 13:03:00,34.7,25.2,29.94,NW,307,4.0,6.0,68,0.00,,,0.00,vanprod-2.5,2013-01-06 18:03:00,
2013-01-06 13:08:00,34.8,25.3,29.94,WNW,298,3.0,6.0,68,0.00,,,0.00,vanprod-2.5,2013-01-06 18:08:00,
2013-01-06 13:13:00,35.1,25.6,29.94,WNW,291,1.0,3.0,68,0.00,,,0.00,vanprod-2.5,2013-01-06 18:13:00,
2013-01-06 13:18:00,35.4,25.5,29.94,WNW,293,4.0,6.0,67,0.00,,,0.00,vanprod-2.5,2013-01-06 18:18:00,
2013-01-06 13:23:00,35.8,25.9,29.93,WNW,298,2.0,4.0,67,0.00,,,0.00,vanprod-2.5,2013-01-06 18:23:00,
2013-01-06 13:28:00,36.3,26.0,29.93,WNW,291,2.0,2.0,66,0.00,,,0.00,vanprod-2.5,2013-01-06 18:28:00,
2013-01-06 13:33:00,36.6,26.0,29.93,NW,314,5.0,9.0,65,0.00,,,0.00,vanprod-2.5,2013-01-06 18:33:00,
2013-01-06 13:38:00,36.7,26.1,29.93,NW,319,3.0,4.0,65,0.00,,,0.00,vanprod-2.5,2013-01-06 18:38:00,
2013-01-06 13:43:00,37.1,26.4,29.93,NNW,336,2.0,4.0,65,0.00,,,0.00,vanprod-2.5,2013-01-06 18:43:00,
2013-01-06 13:48:00,37.3,27.0,29.93,NW,316,3.0,6.0,66,0.00,,,0.00,vanprod-2.5,2013-01-06 18:48:00,
2013-01-06 13:53:00,37.5,26.8,29.93,WNW,286,3.0,5.0,65,0.00,,,0.00,vanprod-2.5,2013-01-06 18:53:00,
2013-01-06 13:58:00,37.6,26.2,29.93,WNW,282,5.0,8.0,63,0.00,,,0.00,vanprod-2.5,2013-01-06 18:58:00,
2013-01-06 14:03:00,37.7,26.3,29.93,WNW,297,4.0,5.0,63,0.00,,,0.00,vanprod-2.5,2013-01-06 19:03:00,
2013-01-06 14:08:00,37.8,26.7,29.93,WNW,294,5.0,5.0,64,0.00,,,0.00,vanprod-2.5,2013-01-06 19:08:00,
2013-01-06 14:13:00,37.9,26.4,29.93,WNW,299,3.0,6.0,63,0.00,,,0.00,vanprod-2.5,2013-01-06 19:13:00,
2013-01-06 14:18:00,38.0,26.9,29.93,WNW,297,5.0,9.0,64,0.00,,,0.00,vanprod-2.5,2013-01-06 19:18:00,
2013-01-06 14:23:00,38.0,26.5,29.93,WNW,289,4.0,4.0,63,0.00,,,0.00,vanprod-2.5,2013-01-06 19:23:00,
2013-01-06 14:28:00,38.0,26.9,29.93,WNW,294,5.0,7.0,64,0.00,,,0.00,vanprod-2.5,2013-01-06 19:28:00,
2013-01-06 14:33:00,38.0,26.5,29.93,West,281,4.0,5.0,63,0.00,,,0.00,vanprod-2.5,2013-01-06 19:33:00,
2013-01-06 14:38:00,38.1,26.6,29.93,West,272,6.0,9.0,63,0.00,,,0.00,vanprod-2.5,2013-01-06 19:38:00,
2013-01-06 14:48:00,37.9,26.8,29.93,WNW,290,6.0,11.0,64,0.00,,,0.00,vanprod-2.5,2013-01-06 19:48:00,
2013-01-06 14:53:00,37.8,26.4,29.94,WNW,283,5.0,7.0,63,0.00,,,0.00,vanprod-2.5,2013-01-06 19:53:00,
2013-01-06 14:58:00,37.8,26.7,29.94,WNW,288,4.0,7.0,64,0.00,,,0.00,vanprod-2.5,2013-01-06 19:58:00,
2013-01-06 15:03:00,37.8,26.7,29.94,WNW,297,5.0,6.0,64,0.00,,,0.00,vanprod-2.5,2013-01-06 20:03:00,
2013-01-06 15:09:00,37.7,27.0,29.94,NW,318,4.0,6.0,65,0.00,,,0.00,vanprod-2.5,2013-01-06 20:09:00,
2013-01-06 15:11:00,37.8,27.1,29.93,West,281,2.0,5.0,65,0.00,,,0.00,vanprod-2.5,2013-01-06 20:11:00,
2013-01-06 15:13:00,37.7,26.6,29.93,NW,320,3.0,3.0,64,0.00,,,0.00,vanprod-2.5,2013-01-06 20:13:00,
2013-01-06 15:18:00,37.7,26.6,29.93,NNW,327,2.0,0.0,64,0.00,,,0.00,vanprod-2.5,2013-01-06 20:18:00,
2013-01-06 15:23:00,37.7,26.6,29.93,West,260,2.0,2.0,64,0.00,,,0.00,vanprod-2.5,2013-01-06 20:23:00,
2013-01-06 15:28:00,37.8,26.7,29.92,West,259,2.0,3.0,64,0.00,,,0.00,vanprod-2.5,2013-01-06 20:28:00,
2013-01-06 15:33:00,37.7,26.6,29.93,WNW,289,2.0,4.0,64,0.00,,,0.00,vanprod-2.5,2013-01-06 20:33:00,
2013-01-06 15:38:00,37.3,26.6,29.93,West,270,4.0,6.0,65,0.00,,,0.00,vanprod-2.5,2013-01-06 20:38:00,
2013-01-06 15:43:00,37.0,26.7,29.93,West,280,4.0,5.0,66,0.00,,,0.00,vanprod-2.5,2013-01-06 20:43:00,
2013-01-06 15:48:00,36.7,26.4,29.93,West,278,5.0,8.0,66,0.00,,,0.00,vanprod-2.5,2013-01-06 20:48:00,
2013-01-06 15:53:00,36.3,26.4,29.93,WNW,289,4.0,4.0,67,0.00,,,0.00,vanprod-2.5,2013-01-06 20:53:00,
2013-01-06 15:58:00,36.0,26.5,29.93,NW,313,5.0,5.0,68,0.00,,,0.00,vanprod-2.5,2013-01-06 20:58:00,
2013-01-06 16:00:00,35.9,26.7,29.93,WNW,292,4.0,4.0,69,0.00,,,0.00,vanprod-2.5,2013-01-06 21:00:00,
2013-01-06 16:05:00,35.6,26.4,29.93,West,272,4.0,5.0,69,0.00,,,0.00,vanprod-2.5,2013-01-06 21:05:00,
2013-01-06 16:10:00,35.4,26.6,29.93,West,272,3.0,7.0,70,0.00,,,0.00,vanprod-2.5,2013-01-06 21:10:00,
2013-01-06 16:15:00,35.2,26.4,29.92,WNW,282,3.0,6.0,70,0.00,,,0.00,vanprod-2.5,2013-01-06 21:15:00,
2013-01-06 16:20:00,35.1,26.3,29.92,NW,306,2.0,2.0,70,0.00,,,0.00,vanprod-2.5,2013-01-06 21:20:00,
2013-01-06 16:25:00,34.9,26.5,29.92,West,264,1.0,2.0,71,0.00,,,0.00,vanprod-2.5,2013-01-06 21:25:00,
2013-01-06 16:30:00,34.8,26.4,29.93,WNW,300,0.0,1.0,71,0.00,,,0.00,vanprod-2.5,2013-01-06 21:30:00,
2013-01-06 16:35:00,34.5,26.4,29.92,NNW,342,0.0,0.0,72,0.00,,,0.00,vanprod-2.5,2013-01-06 21:35:00,
2013-01-06 16:40:00,34.3,26.2,29.92,WSW,249,1.0,2.0,72,0.00,,,0.00,vanprod-2.5,2013-01-06 21:40:00,
2013-01-06 16:45:00,34.1,26.0,29.93,WSW,256,2.0,3.0,72,0.00,,,0.00,vanprod-2.5,2013-01-06 21:45:00,
2013-01-06 16:50:00,33.9,26.2,29.93,SSW,210,1.0,2.0,73,0.00,,,0.00,vanprod-2.5,2013-01-06 21:50:00,
2013-01-06 16:55:00,33.9,26.5,29.93,West,276,3.0,5.0,74,0.00,,,0.00,vanprod-2.5,2013-01-06 21:55:00,
2013-01-06 17:00:00,34.0,26.6,29.94,WNW,283,4.0,5.0,74,0.00,,,0.00,vanprod-2.5,2013-01-06 22:00:00,
2013-01-06 17:05:00,34.2,26.5,29.93,West,269,5.0,8.0,73,0.00,,,0.00,vanprod-2.5,2013-01-06 22:05:00,
2013-01-06 17:10:00,34.4,26.3,29.94,WNW,290,3.0,4.0,72,0.00,,,0.00,vanprod-2.5,2013-01-06 22:10:00,
2013-01-06 17:15:00,34.4,26.3,29.94,West,267,3.0,5.0,72,0.00,,,0.00,vanprod-2.5,2013-01-06 22:15:00,
2013-01-06 17:20:00,34.4,26.3,29.94,WNW,297,3.0,5.0,72,0.00,,,0.00,vanprod-2.5,2013-01-06 22:20:00,
2013-01-06 17:25:00,34.5,26.4,29.94,West,261,4.0,9.0,72,0.00,,,0.00,vanprod-2.5,2013-01-06 22:25:00,
2013-01-06 17:30:00,34.5,26.4,29.94,WNW,292,4.0,8.0,72,0.00,,,0.00,vanprod-2.5,2013-01-06 22:30:00,
2013-01-06 17:35:00,34.6,26.8,29.94,West,266,4.0,13.0,73,0.00,,,0.00,vanprod-2.5,2013-01-06 22:35:00,
2013-01-06 17:41:00,34.6,26.8,29.94,West,275,5.0,8.0,73,0.00,,,0.00,vanprod-2.5,2013-01-06 22:41:00,
2013-01-06 17:46:00,34.7,26.9,29.94,West,281,6.0,9.0,73,0.00,,,0.00,vanprod-2.5,2013-01-06 22:46:00,
2013-01-06 17:51:00,34.7,26.9,29.94,West,271,2.0,3.0,73,0.00,,,0.00,vanprod-2.5,2013-01-06 22:51:00,
2013-01-06 17:56:00,34.5,26.8,29.94,West,273,4.0,6.0,73,0.00,,,0.00,vanprod-2.5,2013-01-06 22:56:00,
2013-01-06 18:01:00,34.3,26.9,29.94,West,278,4.0,4.0,74,0.00,,,0.00,vanprod-2.5,2013-01-06 23:01:00,
2013-01-06 18:06:00,34.2,26.8,29.95,West,263,4.0,6.0,74,0.00,,,0.00,vanprod-2.5,2013-01-06 23:06:00,
2013-01-06 18:11:00,34.0,26.6,29.95,West,275,4.0,4.0,74,0.00,,,0.00,vanprod-2.5,2013-01-06 23:11:00,
2013-01-06 18:16:00,33.9,26.5,29.94,West,276,3.0,4.0,74,0.00,,,0.00,vanprod-2.5,2013-01-06 23:16:00,
2013-01-06 18:21:00,33.8,26.4,29.94,WNW,299,3.0,3.0,74,0.00,,,0.00,vanprod-2.5,2013-01-06 23:21:00,
2013-01-06 18:26:00,33.7,26.6,29.94,WNW,290,2.0,2.0,75,0.00,,,0.00,vanprod-2.5,2013-01-06 23:26:00,
2013-01-06 18:31:00,33.6,26.5,29.94,WNW,289,3.0,3.0,75,0.00,,,0.00,vanprod-2.5,2013-01-06 23:31:00,
2013-01-06 18:36:00,33.5,26.4,29.94,West,280,2.0,2.0,75,0.00,,,0.00,vanprod-2.5,2013-01-06 23:36:00,
2013-01-06 18:41:00,33.5,26.8,29.94,West,274,3.0,3.0,76,0.00,,,0.00,vanprod-2.5,2013-01-06 23:41:00,
2013-01-06 18:46:00,33.6,26.9,29.94,WSW,254,3.0,3.0,76,0.00,,,0.00,vanprod-2.5,2013-01-06 23:46:00,
2013-01-06 18:51:00,33.6,26.9,29.94,West,268,2.0,5.0,76,0.00,,,0.00,vanprod-2.5,2013-01-06 23:51:00,
2013-01-06 18:56:00,33.6,27.2,29.95,West,271,1.0,1.0,77,0.00,,,0.00,vanprod-2.5,2013-01-06 23:56:00,
2013-01-06 19:01:00,33.6,26.9,29.95,WNW,286,2.0,2.0,76,0.00,,,0.00,vanprod-2.5,2013-01-07 00:01:00,
2013-01-06 19:06:00,33.7,27.3,29.95,West,268,3.0,3.0,77,0.00,,,0.00,vanprod-2.5,2013-01-07 00:06:00,
2013-01-06 19:11:00,33.9,27.5,29.95,West,262,2.0,2.0,77,0.00,,,0.00,vanprod-2.5,2013-01-07 00:11:00,
2013-01-06 19:16:00,34.0,27.2,29.95,West,263,2.0,2.0,76,0.00,,,0.00,vanprod-2.5,2013-01-07 00:16:00,
2013-01-06 19:21:00,34.2,27.1,29.95,WNW,285,2.0,2.0,75,0.00,,,0.00,vanprod-2.5,2013-01-07 00:21:00,
2013-01-06 19:26:00,34.3,26.9,29.95,West,279,2.0,2.0,74,0.00,,,0.00,vanprod-2.5,2013-01-07 00:26:00,
2013-01-06 19:31:00,34.2,26.8,29.95,West,277,2.0,2.0,74,0.00,,,0.00,vanprod-2.5,2013-01-07 00:31:00,
2013-01-06 19:36:00,34.1,27.0,29.95,WNW,291,1.0,1.0,75,0.00,,,0.00,vanprod-2.5,2013-01-07 00:36:00,
2013-01-06 19:41:00,34.0,26.9,29.95,WNW,282,2.0,3.0,75,0.00,,,0.00,vanprod-2.5,2013-01-07 00:41:00,
2013-01-06 19:46:00,33.8,27.0,29.95,West,277,1.0,2.0,76,0.00,,,0.00,vanprod-2.5,2013-01-07 00:46:00,
2013-01-06 19:51:00,33.7,27.0,29.95,WNW,286,2.0,2.0,76,0.00,,,0.00,vanprod-2.5,2013-01-07 00:51:00,
2013-01-06 19:56:00,33.7,27.3,29.95,WNW,282,2.0,4.0,77,0.00,,,0.00,vanprod-2.5,2013-01-07 00:56:00,
2013-01-06 20:01:00,33.6,27.2,29.95,WNW,286,2.0,2.0,77,0.00,,,0.00,vanprod-2.5,2013-01-07 01:01:00,
2013-01-06 20:06:00,33.6,27.2,29.95,West,279,1.0,2.0,77,0.00,,,0.00,vanprod-2.5,2013-01-07 01:06:00,
2013-01-06 20:11:00,33.7,27.6,29.95,WNW,284,1.0,0.0,78,0.00,,,0.00,vanprod-2.5,2013-01-07 01:11:00,
2013-01-06 20:16:00,33.7,27.6,29.95,WNW,302,1.0,1.0,78,0.00,,,0.00,vanprod-2.5,2013-01-07 01:16:00,
2013-01-06 20:21:00,33.7,27.6,29.95,SSW,203,1.0,1.0,78,0.00,,,0.00,vanprod-2.5,2013-01-07 01:21:00,
2013-01-06 20:26:00,33.7,27.6,29.95,NW,306,1.0,0.0,78,0.00,,,0.00,vanprod-2.5,2013-01-07 01:26:00,
2013-01-06 20:31:00,33.9,27.5,29.95,West,272,2.0,2.0,77,0.00,,,0.00,vanprod-2.5,2013-01-07 01:31:00,
2013-01-06 20:36:00,33.9,27.1,29.95,WNW,291,4.0,5.0,76,0.00,,,0.00,vanprod-2.5,2013-01-07 01:36:00,
2013-01-06 20:41:00,34.0,27.2,29.95,West,276,1.0,0.0,76,0.00,,,0.00,vanprod-2.5,2013-01-07 01:41:00,
2013-01-06 20:46:00,34.0,27.2,29.95,West,273,1.0,2.0,76,0.00,,,0.00,vanprod-2.5,2013-01-07 01:46:00,
2013-01-06 20:51:00,34.0,27.6,29.95,West,266,2.0,2.0,77,0.00,,,0.00,vanprod-2.5,2013-01-07 01:51:00,
2013-01-06 20:56:00,34.0,27.6,29.95,West,277,0.0,0.0,77,0.00,,,0.00,vanprod-2.5,2013-01-07 01:56:00,
2013-01-06 21:01:00,34.0,27.6,29.95,West,270,2.0,2.0,77,0.00,,,0.00,vanprod-2.5,2013-01-07 02:01:00,
2013-01-06 21:06:00,34.0,27.6,29.95,West,277,1.0,0.0,77,0.00,,,0.00,vanprod-2.5,2013-01-07 02:06:00,
2013-01-06 21:11:00,33.9,27.5,29.95,West,259,0.0,0.0,77,0.00,,,0.00,vanprod-2.5,2013-01-07 02:11:00,
2013-01-06 21:16:00,33.9,27.5,29.95,West,275,2.0,2.0,77,0.00,,,0.00,vanprod-2.5,2013-01-07 02:16:00,
2013-01-06 21:21:00,34.0,27.6,29.95,West,264,1.0,1.0,77,0.00,,,0.00,vanprod-2.5,2013-01-07 02:21:00,
2013-01-06 21:26:00,33.9,27.5,29.95,WSW,253,1.0,5.0,77,0.00,,,0.00,vanprod-2.5,2013-01-07 02:26:00,
2013-01-06 21:31:00,33.9,27.5,29.94,WNW,282,2.0,2.0,77,0.00,,,0.00,vanprod-2.5,2013-01-07 02:31:00,
2013-01-06 21:36:00,34.0,27.2,29.94,WNW,284,2.0,2.0,76,0.00,,,0.00,vanprod-2.5,2013-01-07 02:36:00,
2013-01-06 21:41:00,34.0,27.2,29.94,WNW,284,3.0,3.0,76,0.00,,,0.00,vanprod-2.5,2013-01-07 02:41:00,
2013-01-06 21:46:00,34.0,27.2,29.94,WNW,290,1.0,1.0,76,0.00,,,0.00,vanprod-2.5,2013-01-07 02:46:00,
2013-01-06 21:51:00,34.0,27.6,29.94,West,264,2.0,0.0,77,0.00,,,0.00,vanprod-2.5,2013-01-07 02:51:00,
2013-01-06 21:56:00,34.0,27.6,29.94,WSW,248,0.0,0.0,77,0.00,,,0.00,vanprod-2.5,2013-01-07 02:56:00,
2013-01-06 22:01:00,34.0,27.6,29.94,West,267,0.0,0.0,77,0.00,,,0.00,vanprod-2.5,2013-01-07 03:01:00,
2013-01-06 22:06:00,33.9,27.1,29.94,NNW,331,0.0,0.0,76,0.00,,,0.00,vanprod-2.5,2013-01-07 03:06:00,
2013-01-06 22:11:00,33.5,27.1,29.94,NNW,340,0.0,1.0,77,0.00,,,0.00,vanprod-2.5,2013-01-07 03:11:00,
2013-01-06 22:16:00,33.5,27.4,29.94,NW,313,0.0,0.0,78,0.00,,,0.00,vanprod-2.5,2013-01-07 03:16:00,
2013-01-06 22:21:00,33.3,27.2,29.94,NNW,345,0.0,0.0,78,0.00,,,0.00,vanprod-2.5,2013-01-07 03:21:00,
2013-01-06 22:26:00,33.1,27.0,29.94,NW,317,1.0,2.0,78,0.00,,,0.00,vanprod-2.5,2013-01-07 03:26:00,
2013-01-06 22:31:00,33.1,26.7,29.94,WNW,295,1.0,3.0,77,0.00,,,0.00,vanprod-2.5,2013-01-07 03:31:00,
2013-01-06 22:36:00,33.1,26.7,29.95,NNW,339,1.0,0.0,77,0.00,,,0.00,vanprod-2.5,2013-01-07 03:36:00,
2013-01-06 22:41:00,32.9,26.8,29.95,NW,307,0.0,0.0,78,0.00,,,0.00,vanprod-2.5,2013-01-07 03:41:00,
2013-01-06 22:46:00,32.8,26.7,29.95,NNE,15,1.0,1.0,78,0.00,,,0.00,vanprod-2.5,2013-01-07 03:46:00,
2013-01-06 22:51:00,32.9,26.8,29.95,NNW,330,0.0,0.0,78,0.00,,,0.00,vanprod-2.5,2013-01-07 03:51:00,
2013-01-06 22:56:00,32.9,26.5,29.95,NW,314,0.0,0.0,77,0.00,,,0.00,vanprod-2.5,2013-01-07 03:56:00,
2013-01-06 23:01:00,32.8,26.4,29.95,NNW,342,0.0,0.0,77,0.00,,,0.00,vanprod-2.5,2013-01-07 04:01:00,
2013-01-06 23:06:00,32.5,26.4,29.95,NNW,342,0.0,0.0,78,0.00,,,0.00,vanprod-2.5,2013-01-07 04:06:00,
2013-01-06 23:11:00,32.4,26.3,29.95,NNE,23,0.0,0.0,78,0.00,,,0.00,vanprod-2.5,2013-01-07 04:11:00,
2013-01-06 23:16:00,32.3,26.2,29.95,NNE,23,0.0,0.0,78,0.00,,,0.00,vanprod-2.5,2013-01-07 04:16:00,
2013-01-06 23:21:00,32.3,26.2,29.95,NNW,341,1.0,2.0,78,0.00,,,0.00,vanprod-2.5,2013-01-07 04:21:00,
2013-01-06 23:26:00,32.5,26.4,29.94,NW,319,0.0,0.0,78,0.00,,,0.00,vanprod-2.5,2013-01-07 04:26:00,
2013-01-06 23:31:00,32.5,26.4,29.95,NW,320,0.0,0.0,78,0.00,,,0.00,vanprod-2.5,2013-01-07 04:31:00,
2013-01-06 23:36:00,32.4,26.3,29.95,NNW,337,1.0,1.0,78,0.00,,,0.00,vanprod-2.5,2013-01-07 04:36:00,
2013-01-06 23:41:00,32.6,26.5,29.95,WNW,292,1.0,1.0,78,0.00,,,0.00,vanprod-2.5,2013-01-07 04:41:00,
2013-01-06 23:46:00,32.7,26.9,29.95,NNW,334,1.0,1.0,79,0.00,,,0.00,vanprod-2.5,2013-01-07 04:46:00,
2013-01-06 23:51:00,32.7,26.9,29.95,North,4,0.0,0.0,79,0.00,,,0.00,vanprod-2.5,2013-01-07 04:51:00,
2013-01-06 23:56:00,32.6,26.8,29.95,North,5,0.0,0.0,79,0.00,,,0.00,vanprod-2.5,2013-01-07 04:56:00,